TimePDT,TemperatureF,Dew PointF,Humidity,Sea Level PressureIn,VisibilityMPH,Wind Direction,Wind SpeedMPH,Gust SpeedMPH,PrecipitationIn,Events,Conditions,WindDirDegrees,DateUTC
12:15 AM,51.8,42.8,71,29.90,10.0,Calm,Calm,-,N/A,,Clear,0,2013-10-08 07:15:00
12:35 AM,50.0,41.0,71,29.90,10.0,Calm,Calm,-,N/A,,Clear,0,2013-10-08 07:35:00
12:55 AM,50.0,44.6,82,29.90,10.0,Calm,Calm,-,N/A,,Clear,0,2013-10-08 07:55:00
1:15 AM,50.0,44.6,82,29.89,10.0,South,4.6,-,N/A,,Clear,180,2013-10-08 08:15:00
1:35 AM,50.0,44.6,82,29.89,10.0,Calm,Calm,-,N/A,,Clear,0,2013-10-08 08:35:00
1:55 AM,44.6,41.0,87,29.89,10.0,Calm,Calm,-,N/A,,Clear,0,2013-10-08 08:55:00
2:15 AM,44.6,41.0,87,29.90,10.0,Calm,Calm,-,N/A,,Clear,0,2013-10-08 09:15:00
2:35 AM,44.6,42.8,93,29.90,10.0,Calm,Calm,-,N/A,,Clear,0,2013-10-08 09:35:00
2:55 AM,48.2,44.6,87,29.89,10.0,Calm,Calm,-,N/A,,Clear,0,2013-10-08 09:55:00
3:15 AM,46.4,42.8,87,29.89,10.0,Calm,Calm,-,N/A,,Clear,0,2013-10-08 10:15:00
3:35 AM,44.6,41.0,87,29.89,10.0,Calm,Calm,-,N/A,,Clear,0,2013-10-08 10:35:00
3:55 AM,46.4,44.6,93,29.90,10.0,Calm,Calm,-,N/A,,Clear,0,2013-10-08 10:55:00
4:15 AM,46.4,44.6,93,29.89,10.0,Calm,Calm,-,N/A,,Clear,0,2013-10-08 11:15:00
4:35 AM,44.6,44.6,100,29.90,10.0,Calm,Calm,-,N/A,,Clear,0,2013-10-08 11:35:00
4:55 AM,44.6,42.8,93,29.90,10.0,Calm,Calm,-,N/A,,Clear,0,2013-10-08 11:55:00
5:15 AM,44.6,44.6,100,29.90,10.0,Calm,Calm,-,N/A,,Clear,0,2013-10-08 12:15:00
5:35 AM,44.6,44.6,100,29.90,10.0,Calm,Calm,-,N/A,,Clear,0,2013-10-08 12:35:00
5:55 AM,44.6,42.8,93,29.90,10.0,Calm,Calm,-,N/A,,Clear,0,2013-10-08 12:55:00
6:15 AM,44.6,44.6,100,29.90,10.0,Calm,Calm,-,N/A,,Clear,0,2013-10-08 13:15:00
6:35 AM,41.0,41.0,100,29.91,10.0,Calm,Calm,-,N/A,,Clear,0,2013-10-08 13:35:00
6:55 AM,42.8,41.0,93,29.91,10.0,Calm,Calm,-,N/A,,Clear,0,2013-10-08 13:55:00
7:15 AM,44.6,44.6,100,29.91,10.0,Calm,Calm,-,N/A,,Clear,0,2013-10-08 14:15:00
7:35 AM,39.2,37.4,93,29.91,10.0,Calm,Calm,-,N/A,,Clear,0,2013-10-08 14:35:00
7:55 AM,44.6,41.0,87,29.91,10.0,Calm,Calm,-,N/A,,Clear,0,2013-10-08 14:55:00
8:15 AM,46.4,44.6,93,29.92,10.0,Calm,Calm,-,N/A,,Clear,0,2013-10-08 15:15:00
8:35 AM,48.2,44.6,87,29.92,10.0,Calm,Calm,-,N/A,,Clear,0,2013-10-08 15:35:00
8:55 AM,51.8,46.4,82,29.92,9.0,Calm,Calm,-,N/A,,Clear,0,2013-10-08 15:55:00
9:15 AM,53.6,46.4,77,29.92,10.0,Calm,Calm,-,N/A,,Clear,0,2013-10-08 16:15:00
9:35 AM,57.2,46.4,67,29.92,10.0,Calm,Calm,-,N/A,,Clear,0,2013-10-08 16:35:00
9:55 AM,59.0,48.2,67,29.92,10.0,Calm,Calm,-,N/A,,Clear,0,2013-10-08 16:55:00
10:15 AM,62.6,46.4,55,29.92,10.0,North,6.9,-,N/A,,Clear,10,2013-10-08 17:15:00
10:35 AM,66.2,44.6,46,29.91,10.0,NNW,6.9,-,N/A,,Clear,340,2013-10-08 17:35:00
10:55 AM,68.0,44.6,43,29.91,10.0,Calm,Calm,-,N/A,,Clear,0,2013-10-08 17:55:00
11:15 AM,68.0,44.6,43,29.90,10.0,SW,3.5,-,N/A,,Clear,220,2013-10-08 18:15:00
11:35 AM,68.0,44.6,43,29.89,10.0,SSE,3.5,-,N/A,,Clear,150,2013-10-08 18:35:00
11:55 AM,68.0,44.6,43,29.89,10.0,East,3.5,-,N/A,,Clear,100,2013-10-08 18:55:00
12:15 PM,71.6,44.6,38,29.88,10.0,SSE,3.5,-,N/A,,Clear,150,2013-10-08 19:15:00
12:35 PM,73.4,46.4,38,29.87,10.0,SSE,4.6,-,N/A,,Clear,150,2013-10-08 19:35:00
12:55 PM,73.4,46.4,38,29.86,10.0,SE,4.6,-,N/A,Rain,Light Rain,140,2013-10-08 19:55:00
1:15 PM,73.4,46.4,38,29.85,10.0,SE,6.9,-,N/A,Rain,Light Rain,130,2013-10-08 20:15:00
1:35 PM,73.4,48.2,41,29.83,10.0,SE,9.2,-,N/A,,Clear,130,2013-10-08 20:35:00
1:55 PM,73.4,48.2,41,29.82,10.0,ESE,6.9,-,N/A,,Clear,120,2013-10-08 20:55:00
2:15 PM,75.2,46.4,36,29.80,10.0,SE,8.1,-,N/A,,Clear,130,2013-10-08 21:15:00
2:35 PM,77.0,46.4,34,29.79,10.0,SSE,6.9,-,N/A,,Clear,160,2013-10-08 21:35:00
2:55 PM,77.0,46.4,34,29.79,10.0,SE,5.8,-,N/A,,Clear,140,2013-10-08 21:55:00
3:15 PM,75.2,46.4,36,29.78,10.0,ESE,11.5,-,N/A,,Clear,120,2013-10-08 22:15:00
3:35 PM,75.2,44.6,34,29.78,10.0,SE,6.9,-,N/A,,Clear,130,2013-10-08 22:35:00
3:55 PM,77.0,41.0,28,29.78,10.0,WSW,9.2,-,N/A,,Clear,250,2013-10-08 22:55:00
4:15 PM,75.2,41.0,29,29.77,10.0,WSW,11.5,-,N/A,,Clear,250,2013-10-08 23:15:00
4:35 PM,75.2,41.0,29,29.76,10.0,WSW,11.5,-,N/A,,Clear,240,2013-10-08 23:35:00
4:55 PM,73.4,41.0,31,29.76,10.0,WSW,12.7,-,N/A,,Clear,250,2013-10-08 23:55:00
5:15 PM,73.4,39.2,29,29.75,10.0,WSW,6.9,-,N/A,,Clear,240,2013-10-09 00:15:00
5:35 PM,71.6,37.4,29,29.75,10.0,WSW,10.4,-,N/A,,Clear,250,2013-10-09 00:35:00
5:55 PM,69.8,39.2,33,29.75,10.0,WSW,3.5,-,N/A,,Clear,240,2013-10-09 00:55:00
6:15 PM,68.0,39.2,35,29.74,10.0,SSW,5.8,-,N/A,,Clear,210,2013-10-09 01:15:00
6:35 PM,64.4,42.8,45,29.74,10.0,South,10.4,-,N/A,,Clear,190,2013-10-09 01:35:00
6:55 PM,60.8,41.0,48,29.74,10.0,Calm,Calm,-,N/A,,Clear,0,2013-10-09 01:55:00
7:15 PM,59.0,41.0,51,29.74,10.0,SW,4.6,-,N/A,,Clear,220,2013-10-09 02:15:00
7:35 PM,57.2,42.8,59,29.74,10.0,South,4.6,-,N/A,,Clear,180,2013-10-09 02:35:00
7:55 PM,53.6,41.0,62,29.74,10.0,Calm,Calm,-,N/A,,Clear,0,2013-10-09 02:55:00
8:15 PM,51.8,44.6,76,29.75,10.0,ENE,3.5,-,N/A,,Clear,70,2013-10-09 03:15:00
8:35 PM,53.6,44.6,72,29.75,10.0,Calm,Calm,-,N/A,,Clear,0,2013-10-09 03:35:00
8:55 PM,55.4,44.6,67,29.75,10.0,Calm,Calm,-,N/A,,Clear,0,2013-10-09 03:55:00
9:15 PM,53.6,44.6,72,29.75,10.0,SSW,3.5,-,N/A,,Clear,210,2013-10-09 04:15:00
9:35 PM,51.8,44.6,76,29.75,10.0,SSE,3.5,-,N/A,,Clear,160,2013-10-09 04:35:00
9:55 PM,53.6,44.6,72,29.75,10.0,ENE,3.5,-,N/A,,Clear,60,2013-10-09 04:55:00
10:15 PM,55.4,44.6,67,29.74,10.0,SSW,4.6,-,N/A,,Clear,200,2013-10-09 05:15:00
10:35 PM,57.2,44.6,63,29.73,10.0,SE,3.5,-,N/A,,Clear,130,2013-10-09 05:35:00
10:55 PM,55.4,42.8,63,29.73,10.0,Calm,Calm,-,N/A,,Clear,0,2013-10-09 05:55:00
11:15 PM,57.2,42.8,59,29.72,10.0,SE,4.6,-,N/A,,Clear,140,2013-10-09 06:15:00
11:35 PM,57.2,42.8,59,29.73,10.0,Calm,Calm,-,N/A,,Clear,0,2013-10-09 06:35:00
11:55 PM,55.4,42.8,63,29.71,10.0,SSE,3.5,-,N/A,,Clear,150,2013-10-09 06:55:00